Back to catalog

GEOSKAN-2

AliveAmateur RadioSSO
NORAD 64890·PAYLOAD·🇷🇺 Russia
This satellite name has not been confirmed by official sources yet.

Launched Jul 25, 2025 from Vostochny Cosmodrome

Loading…

Next Passes (next 24 hours)

TLE

FreshSource: Space-Track

Epoch: Sep 14, 2026, 14:28 UTC

1 64890U 25155Q   26257.60342090  .00009758  00000-0  31143-3 0  9995
2 64890  97.4661 227.0756 0006120 187.5397 172.5754 15.32686624 94478

Track GEOSKAN-2 in real time with AllMySat

Download on the App Store